Météo par heure à Almáskamarás

Ce jour, 15 Mai, Samedi

Heure Température Précipitation Vent Pression Humidité
00:00 +11°C° 0 mm 1 m/s 749 mmHg 88%
01:00 +11°C° 0 mm 1 m/s 749 mmHg 89%
02:00 +11°C° 0 mm 1 m/s 749 mmHg 89%
03:00 +9°C° 0 mm 0 m/s 749 mmHg 90%
04:00 +9°C° 0 mm 0 m/s 749 mmHg 90%
05:00 +11°C° 0 mm 0 m/s 749 mmHg 86%
06:00 +12°C° 0 mm 0 m/s 750 mmHg 82%
07:00 +15°C° 0 mm 1 m/s 750 mmHg 78%
08:00 +16°C° 0 mm 1 m/s 750 mmHg 72%
09:00 +19°C° 0 mm 1 m/s 750 mmHg 66%
10:00 +19°C° 0 mm 2 m/s 749 mmHg 59%
11:00 +20°C° 0.1 mm 2 m/s 749 mmHg 58%
12:00 +20°C° 0.1 mm 2 m/s 749 mmHg 56%
13:00 +21°C° 0.1 mm 2 m/s 749 mmHg 55%
14:00 +22°C° 0.1 mm 1 m/s 749 mmHg 55%
15:00 +22°C° 0.1 mm 1 m/s 748 mmHg 55%
16:00 +22°C° 0.1 mm 1 m/s 748 mmHg 56%
17:00 +20°C° 0 mm 1 m/s 748 mmHg 62%
18:00 +18°C° 0 mm 2 m/s 748 mmHg 68%
19:00 +16°C° 0 mm 2 m/s 747 mmHg 75%
20:00 +15°C° 0.1 mm 2 m/s 748 mmHg 78%
21:00 +15°C° 0.1 mm 2 m/s 748 mmHg 81%
22:00 +14°C° 0.1 mm 2 m/s 748 mmHg 83%
23:00 +14°C° 0.2 mm 1 m/s 748 mmHg 84%

Demain, 16 Mai, Dimanche

Heure Température Précipitation Vent Pression Humidité
00:00 +14°C° 0.2 mm 1 m/s 748 mmHg 85%
01:00 +14°C° 0.2 mm 1 m/s 748 mmHg 87%
02:00 +14°C° 0.3 mm 1 m/s 747 mmHg 88%
03:00 +13°C° 0.3 mm 1 m/s 747 mmHg 90%
04:00 +13°C° 0.3 mm 2 m/s 747 mmHg 92%
05:00 +13°C° 0.6 mm 2 m/s 748 mmHg 92%
06:00 +14°C° 0.6 mm 2 m/s 748 mmHg 93%
07:00 +14°C° 0.6 mm 2 m/s 748 mmHg 94%
08:00 +15°C° 0.6 mm 2 m/s 748 mmHg 89%
09:00 +16°C° 0.6 mm 3 m/s 748 mmHg 85%
10:00 +16°C° 0.6 mm 3 m/s 749 mmHg 80%
11:00 +17°C° 0.2 mm 3 m/s 748 mmHg 77%
12:00 +17°C° 0.2 mm 3 m/s 748 mmHg 74%
13:00 +18°C° 0.2 mm 3 m/s 748 mmHg 71%
14:00 +18°C° 0.4 mm 3 m/s 748 mmHg 72%
15:00 +18°C° 0.4 mm 3 m/s 748 mmHg 72%
16:00 +18°C° 0.4 mm 4 m/s 748 mmHg 72%
17:00 +17°C° 0.1 mm 3 m/s 748 mmHg 76%
18:00 +16°C° 0.1 mm 3 m/s 748 mmHg 81%
19:00 +14°C° 0.1 mm 2 m/s 748 mmHg 85%
20:00 +14°C° 0 mm 2 m/s 748 mmHg 84%
21:00 +13°C° 0 mm 1 m/s 748 mmHg 84%
22:00 +13°C° 0 mm 1 m/s 748 mmHg 83%
23:00 +12°C° 0 mm 1 m/s 748 mmHg 85%

Après-demain, 17 Mai, Lundi

Heure Température Précipitation Vent Pression Humidité
00:00 +12°C° 0 mm 2 m/s 748 mmHg 87%
01:00 +12°C° 0 mm 2 m/s 748 mmHg 90%
02:00 +12°C° 0 mm 2 m/s 747 mmHg 90%
03:00 +12°C° 0 mm 2 m/s 747 mmHg 91%
04:00 +12°C° 0 mm 2 m/s 747 mmHg 92%
05:00 +13°C° 0.1 mm 2 m/s 747 mmHg 92%
06:00 +13°C° 0.1 mm 2 m/s 747 mmHg 93%
07:00 +14°C° 0.1 mm 2 m/s 747 mmHg 93%
08:00 +13°C° 0.4 mm 3 m/s 747 mmHg 94%
09:00 +13°C° 0.4 mm 3 m/s 747 mmHg 94%
10:00 +13°C° 0.4 mm 3 m/s 747 mmHg 94%
11:00 +14°C° 0.4 mm 3 m/s 747 mmHg 92%
12:00 +16°C° 0.4 mm 3 m/s 747 mmHg 90%
13:00 +16°C° 0.4 mm 3 m/s 746 mmHg 89%
14:00 +15°C° 0.6 mm 4 m/s 746 mmHg 89%
15:00 +15°C° 0.6 mm 5 m/s 746 mmHg 90%
16:00 +15°C° 0.6 mm 5 m/s 746 mmHg 90%
17:00 +14°C° 0.1 mm 5 m/s 746 mmHg 90%
18:00 +13°C° 0.1 mm 5 m/s 747 mmHg 90%
19:00 +12°C° 0.1 mm 5 m/s 747 mmHg 89%
20:00 +11°C° 0 mm 4 m/s 748 mmHg 91%
21:00 +11°C° 0 mm 4 m/s 748 mmHg 92%
22:00 +10°C° 0 mm 3 m/s 748 mmHg 94%
23:00 +10°C° 0 mm 3 m/s 748 mmHg 94%

18 Mai, Mardi

Heure Température Précipitation Vent Pression Humidité
00:00 +10°C° 0 mm 3 m/s 749 mmHg 94%
01:00 +10°C° 0 mm 3 m/s 749 mmHg 95%
02:00 +10°C° 0 mm 3 m/s 749 mmHg 94%
03:00 +10°C° 0 mm 3 m/s 749 mmHg 93%
04:00 +10°C° 0 mm 3 m/s 749 mmHg 92%
05:00 +11°C° 0 mm 3 m/s 749 mmHg 89%
06:00 +11°C° 0 mm 4 m/s 750 mmHg 85%
07:00 +12°C° 0 mm 4 m/s 750 mmHg 82%
08:00 +13°C° 0.1 mm 5 m/s 750 mmHg 76%
09:00 +15°C° 0.1 mm 5 m/s 751 mmHg 69%
10:00 +16°C° 0.1 mm 5 m/s 751 mmHg 63%
11:00 +16°C° 0.1 mm 5 m/s 751 mmHg 61%
12:00 +17°C° 0.1 mm 5 m/s 751 mmHg 58%
13:00 +17°C° 0.1 mm 6 m/s 751 mmHg 56%
14:00 +17°C° 0 mm 5 m/s 751 mmHg 57%
15:00 +17°C° 0 mm 5 m/s 751 mmHg 58%
16:00 +16°C° 0 mm 5 m/s 751 mmHg 59%
17:00 +15°C° 0 mm 4 m/s 751 mmHg 65%
18:00 +14°C° 0 mm 3 m/s 751 mmHg 72%
19:00 +13°C° 0 mm 2 m/s 751 mmHg 78%
20:00 +12°C° 0 mm 2 m/s 751 mmHg 81%
21:00 +10°C° 0 mm 3 m/s 751 mmHg 85%
22:00 +10°C° 0 mm 3 m/s 752 mmHg 88%
23:00 +9°C° 0 mm 3 m/s 752 mmHg 89%

19 Mai, Mercredi

Heure Température Précipitation Vent Pression Humidité
00:00 +9°C° 0 mm 2 m/s 752 mmHg 91%
01:00 +8°C° 0 mm 2 m/s 752 mmHg 93%
02:00 +8°C° 0 mm 2 m/s 752 mmHg 93%
03:00 +7°C° 0 mm 2 m/s 752 mmHg 94%
04:00 +7°C° 0 mm 2 m/s 752 mmHg 95%
05:00 +8°C° 0 mm 3 m/s 752 mmHg 90%
06:00 +10°C° 0 mm 3 m/s 753 mmHg 86%
07:00 +11°C° 0 mm 3 m/s 753 mmHg 81%
08:00 +12°C° 0 mm 3 m/s 753 mmHg 77%
09:00 +14°C° 0 mm 4 m/s 753 mmHg 72%
10:00 +15°C° 0 mm 4 m/s 753 mmHg 68%
11:00 +15°C° 0.1 mm 4 m/s 753 mmHg 68%
12:00 +15°C° 0.1 mm 5 m/s 753 mmHg 69%
13:00 +15°C° 0.1 mm 5 m/s 753 mmHg 69%
14:00 +15°C° 0 mm 5 m/s 753 mmHg 68%
15:00 +15°C° 0 mm 5 m/s 753 mmHg 67%
16:00 +15°C° 0 mm 5 m/s 753 mmHg 65%
17:00 +14°C° 0.1 mm 4 m/s 753 mmHg 70%
18:00 +13°C° 0.1 mm 3 m/s 753 mmHg 74%
19:00 +13°C° 0.1 mm 2 m/s 753 mmHg 78%
20:00 +11°C° 0 mm 3 m/s 754 mmHg 81%
21:00 +10°C° 0 mm 3 m/s 754 mmHg 83%
22:00 +9°C° 0 mm 3 m/s 754 mmHg 86%
23:00 +9°C° 0 mm 3 m/s 754 mmHg 88%

20 Mai, Jeudi

Heure Température Précipitation Vent Pression Humidité
00:00 +8°C° 0 mm 3 m/s 755 mmHg 90%
01:00 +8°C° 0 mm 3 m/s 755 mmHg 92%
02:00 +7°C° 0 mm 3 m/s 755 mmHg 92%
03:00 +6°C° 0 mm 4 m/s 755 mmHg 93%
04:00 +6°C° 0 mm 4 m/s 756 mmHg 93%
05:00 +8°C° 0 mm 3 m/s 756 mmHg 88%
06:00 +10°C° 0 mm 3 m/s 756 mmHg 84%
07:00 +11°C° 0 mm 3 m/s 757 mmHg 79%
08:00 +12°C° 0.1 mm 3 m/s 757 mmHg 74%
09:00 +14°C° 0.1 mm 3 m/s 757 mmHg 69%
10:00 +16°C° 0.1 mm 3 m/s 757 mmHg 65%
11:00 +17°C° 0.5 mm 3 m/s 756 mmHg 62%
12:00 +17°C° 0.5 mm 3 m/s 756 mmHg 60%
13:00 +18°C° 0.5 mm 4 m/s 756 mmHg 57%
14:00 +18°C° 0.1 mm 3 m/s 756 mmHg 59%
15:00 +17°C° 0.1 mm 3 m/s 756 mmHg 61%
16:00 +17°C° 0.1 mm 2 m/s 756 mmHg 63%
17:00 +16°C° 0 mm 2 m/s 756 mmHg 66%
18:00 +15°C° 0 mm 2 m/s 756 mmHg 68%
19:00 +14°C° 0 mm 1 m/s 756 mmHg 71%
20:00 +13°C° 0 mm 2 m/s 756 mmHg 73%
21:00 +12°C° 0 mm 2 m/s 756 mmHg 75%
22:00 +10°C° 0 mm 2 m/s 756 mmHg 77%
23:00 +10°C° 0 mm 2 m/s 756 mmHg 79%
Voir plus

Nous avons besoin de votre consentement

Meteoprog et ses fournisseurs de services peuvent stocker et accéder à des données personnelles telles que des cookies, des identifiants d'appareils ou d'autres technologies similaires sur votre appareil et traiter ces données pour personnaliser le contenu et les publicités, ainsi que pour fournir des fonctionnalités de médias sociaux et analyser le trafic.

  • Stocker et/ou accéder à des informations sur votre appareil

    Des cookies, des identifiants d'appareils ou d'autres informations peuvent être stockés ou accessibles sur votre appareil aux fins indiquées ci-dessus.

  • Annonces et contenus personnalisés, mesure des annonces et des contenus, connaissance de l'audience et développement de produits

    Les annonces et le contenu peuvent être personnalisés en fonction d'un profil. D'autres données peuvent être ajoutées pour mieux personnaliser les annonces et le contenu. Les performances des publicités et du contenu peuvent être mesurées. Il est possible d'obtenir des informations sur le public qui a vu les publicités et le contenu. Ces données peuvent être utilisées pour développer ou améliorer l'expérience de l'utilisateur, les systèmes et les logiciels.

En cliquant sur "J'accepte", vous autorisez l'utilisation de cookies, des identifiants d'appareils, des balises web ou d'autres technologies similaires. Vos paramètres peuvent être modifiés dans le navigateur de votre appareil.

Dans certains cas, des intérêts légitimes peuvent être invoqués plutôt qu'un consentement. Vous pouvez en savoir plus à ce sujet dans notre Politique de confidentialité et de cookies.